EW9686 Weather Reports


Display with metric or nautical units.
time (UTC)temp
F
wind
direction
speed
MPH
gust
MPH
rain 1hr
in
rain 24hr
in
rain mn
in
humidity
%
barometer
mb
20260505075519 59 225 4.0 10.0 0.00 0.00 0.00 78 1006.2
20260505074519 59 225 3.0 11.0 0.00 0.00 0.00 78 1006.2
20260505073520 59 225 5.0 11.0 0.00 0.00 0.00 77 1006.1
20260505072519 59 225 4.0 10.0 0.00 0.00 0.00 76 1006.1
20260505071539 59 225 4.0 10.0 0.00 0.00 0.00 75 1005.9
20260505070519 59 203 4.0 13.0 0.00 0.00 0.00 75 1005.8
20260505065519 60 225 3.0 10.0 0.00 0.00 0.00 74 1005.9
20260505064539 60 225 4.0 11.0 0.00 0.00 0.00 73 1005.9
20260505063520 60 225 4.0 9.0 0.00 0.00 0.00 73 1006.1
20260505062519 60 225 3.0 9.0 0.00 0.00 0.00 73 1006.1
20260505061559 60 225 3.0 8.0 0.00 0.00 0.00 72 1006.2
20260505060519 61 225 3.0 9.0 0.00 0.00 0.00 71 1006.2
20260505055519 61 225 4.0 11.0 0.00 0.00 0.00 70 1006.3
20260505054539 61 225 3.0 8.0 0.00 0.00 0.00 70 1006.3
20260505053519 60 225 4.0 8.0 0.00 0.00 0.00 70 1006.3
20260505052519 60 225 4.0 9.0 0.00 0.00 0.00 70 1006.3
20260505051519 60 225 3.0 10.0 0.00 0.00 0.00 70 1006.3
20260505050519 60 225 3.0 12.0 0.00 0.00 0.00 69 1006.3
20260505041520 60 225 2.0 7.0 0.00 0.00 0.00 69 1006.7
20260505040521 60 225 3.0 9.0 0.00 0.00 0.00 69 1006.8
20260505035519 59 225 2.0 8.0 0.00 0.00 0.00 70 1006.5
20260505034539 59 225 2.0 8.0 0.00 0.00 0.00 70 1006.7
20260505033600 58 203 2.0 6.0 0.00 0.00 0.00 71 1006.6
20260505032519 58 225 1.0 6.0 0.00 0.00 0.00 71 1006.8
20260505031519 58 0.0 5.0 0.00 0.00 0.00 71 1006.9
20260505030519 58 225 1.0 5.0 0.00 0.00 0.00 71 1007.0
20260505025519 58 0.0 4.0 0.00 0.00 0.00 71 1007.0
20260505024519 58 0.0 3.0 0.00 0.00 0.00 71 1007.0
20260505023519 58 0.0 2.0 0.00 0.00 0.00 70 1007.0
20260505022519 58 0.0 4.0 0.00 0.00 0.00 69 1007.1
20260505021520 59 0.0 2.0 0.00 0.00 0.00 68 1007.1
20260505020519 59 225 1.0 7.0 0.00 0.00 0.00 67 1007.1
20260505015519 59 203 1.0 5.0 0.00 0.00 0.00 66 1007.2
20260505014519 59 203 1.0 2.0 0.00 0.00 0.00 64 1007.1
20260505013519 60 0.0 2.0 0.00 0.00 0.00 63 1007.0
20260505012540 60 0.0 4.0 0.00 0.00 0.00 61 1006.9
20260505011519 61 225 1.0 3.0 0.00 0.00 0.00 60 1006.8
20260505010519 62 0.0 2.0 0.00 0.00 0.00 57 1006.6
20260505005519 62 0.0 2.0 0.00 0.00 0.00 56 1006.6
20260505004521 63 203 1.0 10.0 0.00 0.00 0.00 55 1006.5
20260505003519 63 225 1.0 6.0 0.00 0.00 0.00 54 1006.3
20260505002519 64 225 1.0 5.0 0.00 0.00 0.00 52 1006.3
20260505001519 65 225 2.0 6.0 0.00 0.00 0.00 51 1006.1
20260505000520 66 225 1.0 5.0 0.00 0.00 0.00 49 1005.9
20260504235520 68 225 2.0 9.0 0.00 0.00 0.00 44 1005.7
20260504234520 69 225 3.0 10.0 0.00 0.00 0.00 39 1005.6
20260504233519 70 225 2.0 8.0 0.00 0.00 0.00 37 1005.6
20260504232519 70 225 2.0 7.0 0.00 0.00 0.00 36 1005.5
20260504231519 71 225 4.0 9.0 0.00 0.00 0.00 35 1005.4
20260504230559 71 225 5.0 14.0 0.00 0.00 0.00 35 1005.4
20260504225519 71 225 4.0 10.0 0.00 0.00 0.00 35 1005.3
20260504224520 71 225 5.0 11.0 0.00 0.00 0.00 34 1005.3
20260504223519 72 248 6.0 15.0 0.00 0.00 0.00 34 1005.2
20260504222519 72 225 5.0 10.0 0.00 0.00 0.00 33 1005.2
20260504221519 72 248 5.0 14.0 0.00 0.00 0.00 32 1005.2
20260504220519 72 225 6.0 14.0 0.00 0.00 0.00 34 1005.4
20260504215519 73 225 7.0 18.0 0.00 0.00 0.00 32 1005.4
20260504214519 72 225 5.0 14.0 0.00 0.00 0.00 33 1005.3
20260504213520 73 225 5.0 14.0 0.00 0.00 0.00 33 1005.5
20260504212519 73 225 6.0 18.0 0.00 0.00 0.00 32 1005.6
20260504211539 73 225 6.0 16.0 0.00 0.00 0.00 33 1005.6
20260504210519 73 225 5.0 12.0 0.00 0.00 0.00 33 1005.5
20260504205519 73 225 6.0 12.0 0.00 0.00 0.00 33 1005.5
20260504204519 73 225 6.0 11.0 0.00 0.00 0.00 33 1005.6
20260504203519 73 225 5.0 11.0 0.00 0.00 0.00 33 1005.5
20260504202519 72 225 7.0 13.0 0.00 0.00 0.00 32 1005.5
20260504201519 72 225 6.0 14.0 0.00 0.00 0.00 33 1005.5
20260504200519 72 225 5.0 12.0 0.00 0.00 0.00 33 1005.7
20260504195519 72 225 8.0 18.0 0.00 0.00 0.00 33 1005.8
20260504194539 72 225 8.0 14.0 0.00 0.00 0.00 34 1006.0
20260504193519 71 225 7.0 16.0 0.00 0.00 0.00 33 1006.1
20260504192519 72 225 3.0 8.0 0.00 0.00 0.00 34 1006.2
20260504191519 71 225 6.0 11.0 0.00 0.00 0.00 34 1006.2
20260504190519 71 225 7.0 14.0 0.00 0.00 0.00 33 1006.5
20260504185519 71 248 7.0 15.0 0.00 0.00 0.00 33 1006.7
20260504184519 70 225 9.0 20.0 0.00 0.00 0.00 35 1006.9
20260504183519 70 225 8.0 18.0 0.00 0.00 0.00 34 1006.9
20260504182519 70 225 9.0 14.0 0.00 0.00 0.00 34 1007.1
20260504181519 70 225 6.0 13.0 0.00 0.00 0.00 35 1007.1
20260504180519 70 225 8.0 19.0 0.00 0.00 0.00 36 1007.3
20260504175519 69 225 6.0 16.0 0.00 0.00 0.00 36 1007.4
20260504174539 69 225 8.0 19.0 0.00 0.00 0.00 35 1007.5
20260504173600 69 225 7.0 15.0 0.00 0.00 0.00 35 1007.5
20260504172559 69 270 5.0 11.0 0.00 0.00 0.00 37 1007.8
20260504171600 68 225 8.0 15.0 0.00 0.00 0.00 36 1007.9
20260504170520 68 248 7.0 13.0 0.00 0.00 0.00 37 1007.9
20260504150519 64 225 4.0 10.0 0.00 0.00 0.00 46 1009.2
20260504140519 62 225 5.0 11.0 0.00 0.00 0.00 54 1009.5
20260504130539 58 225 7.0 14.0 0.00 0.00 0.00 58 1010.2
20260504110519 48 225 3.0 9.0 0.00 0.00 0.00 74 1010.8
20260504100519 45 225 2.0 9.0 0.00 0.00 0.00 73 1010.6
20260504081519 48 225 3.0 7.0 0.00 0.00 0.00 63 1010.3
20260504080540 48 225 3.0 8.0 0.00 0.00 0.00 64 1010.3